Location: Corralito
(10.2667°N, 66.9500°W)
Time: 08:54:27
(UTC+00:00)

GPS 2-15 Rocket1 - Pass Details

Date: 08 December 2023
Orbit: 617 x 666 km, 19.8° (Epoch: 02 March)

Event Time Altitude Azimuth Distance (km) Brightness Sun altitude
Exits shadow 08:03:22 14° 69° (ENE) 1,737 5.8 -35.2°
Drops below altitude 10° 08:04:07 10° 74° (ENE) 1,984 6.2 -35.1°
Sets 08:06:41 0° 84° (E) 2,899 7.3 -34.5°
